User: anonymous   Login
Location: Esp�n
(42.4593°N, 0.2047°W)
Time: 14:04:54
(UTC+00:00)
Language:

STARLINK-70 - Orbit

View from above orbital plane
View from above orbital plane
View from above satellite
View from above satellite

Ground track
Ground track

The orbit data is extracted from the following two-line orbital elements,

1 44281C 19029AY  21020.07743756  .00019688  00000-0  42046-3 0   200
2 44281  52.9987 264.1362 0002534 119.1919 345.9615 15.44245978    13
Epoch (UTC): 20 January 2021 01:51:30
Eccentricity: 0.0002534
inclination: 52.9987°
perigee height: 432 km
apogee height: 435 km
right ascension of ascending node: 264.1362°
argument of perigee: 119.1919°
revolutions per day: 15.44245978
mean anomaly at epoch: 345.9615°
orbit number at epoch: 1

The dashed part of the orbit path shows where the satellite is in the earth's shadow,  

DLR